Temp
-15 -15 -15 -15 -15 -15 -15 -15 -15 -15 -15 -15 -15 -15 -15 -15 -15 -15 -16 -17 -17 -18 -18 -18 -18 -18 -19 -19 -19 -19 -19 -19 -19 -19 -19 -19 -19 -19 -19 -18 -18 -18 -18
-16 -16 -16 -16 -16 -16 -15 -15 -15 -15 -15 -15 -15 -15 -15 -15 -15 -16 -16 -16 -17 -17 -18 -19 -19 -19 -19 -20 -19 -19 -19 -19 -19 -19 -18 -18 -19 -19 -19 -19 -19 -19 -19
-16 -16 -16 -16 -16 -16 -16 -15 -16 -15 -15 -15 -15 -15 -15 -15 -15 -16 -16 -16 -17 -18 -18 -19 -19 -19 -19 -19 -19 -19 -19 -19 -19 -19 -19 -19 -19 -19 -19 -19 -20 -20 -20
-16 -16 -16 -16 -16 -16 -15 -15 -15 -15 -15 -15 -15 -15 -15 -15 -15 -16 -16 -16 -17 -18 -18 -18 -19 -19 -19 -19 -19 -19 -19 -19 -19 -19 -19 -20 -20 -20 -20 -20 -20 -20 -21
-16 -15 -16 -16 -15 -15 -15 -15 -15 -15 -15 -15 -15 -15 -15 -15 -15 -16 -17 -17 -17 -18 -18 -18 -19 -19 -20 -20 -19 -19 -19 -19 -19 -20 -20 -20 -21 -21 -21 -20 -21 -21 -22
-15 -15 -16 -15 -15 -14 -15 -15 -14 -14 -15 -15 -15 -15 -15 -16 -16 -16 -17 -17 -18 -18 -18 -19 -19 -19 -20 -20 -19 -19 -19 -20 -20 -21 -21 -21 -21 -22 -22 -22 -23 -25 -26
-15 -15 -15 -14 -14 -14 -14 -15 -15 -15 -15 -15 -15 -15 -16 -16 -17 -18 -18 -18 -18 -19 -19 -19 -19 -20 -20 -20 -20 -20 -20 -21 -21 -21 -22 -22 -22 -23 -24 -26 -27 -28 -29
-15 -14 -14 -14 -14 -14 -15 -15 -15 -15 -15 -15 -16 -16 -16 -17 -18 -18 -18 -18 -19 -19 -19 -20 -20 -20 -20 -20 -20 -21 -21 -21 -21 -22 -22 -23 -24 -26 -27 -29 -30 -30 -31
-14 -14 -14 -14 -14 -14 -15 -15 -15 -15 -15 -16 -16 -16 -17 -17 -18 -18 -18 -19 -19 -19 -20 -20 -20 -20 -21 -21 -21 -21 -22 -22 -23 -23 -23 -25 -27 -28 -29 -30 -32 -32 -31
-14 -14 -14 -14 -15 -15 -15 -15 -15 -16 -16 -16 -17 -17 -17 -18 -18 -18 -19 -19 -19 -20 -20 -21 -21 -21 -21 -21 -22 -22 -23 -23 -23 -25 -26 -27 -29 -30 -31 -32 -32 -32 -32
-14 -15 -15 -15 -15 -15 -15 -15 -16 -16 -16 -17 -17 -17 -18 -18 -19 -19 -19 -20 -20 -20 -21 -21 -21 -22 -22 -22 -22 -23 -23 -23 -25 -27 -28 -29 -31 -31 -32 -32 -32 -32 -32
-15 -15 -15 -15 -15 -16 -16 -16 -16 -16 -17 -17 -17 -18 -19 -19 -19 -19 -20 -20 -20 -21 -21 -21 -22 -22 -22 -22 -23 -23 -23 -24 -27 -28 -30 -31 -32 -32 -33 -32 -32 -32 -32
-15 -15 -15 -16 -16 -16 -16 -16 -17 -17 -18 -18 -18 -18 -19 -19 -19 -20 -20 -20 -21 -21 -21 -22 -22 -22 -23 -23 -23 -24 -24 -27 -28 -30 -31 -32 -32 -33 -32 -32 -32 -32 -32
-16 -16 -16 -16 -16 -17 -17 -17 -17 -18 -18 -18 -19 -19 -19 -20 -20 -20 -20 -21 -21 -21 -22 -22 -23 -23 -23 -23 -23 -24 -26 -28 -30 -31 -32 -32 -33 -33 -32 -32 -32 -32 -32
-16 -16 -16 -16 -17 -17 -17 -18 -18 -18 -19 -19 -19 -19 -20 -20 -20 -20 -21 -21 -21 -22 -22 -22 -23 -23 -23 -23 -24 -25 -27 -29 -31 -32 -32 -33 -33 -33 -33 -33 -33 -33 -32
-16 -17 -17 -17 -17 -17 -18 -18 -19 -19 -19 -19 -20 -20 -20 -20 -21 -21 -21 -22 -22 -22 -22 -23 -24 -24 -24 -24 -25 -27 -29 -31 -32 -32 -33 -33 -32 -32 -32 -32 -33 -33 -32
-17 -17 -17 -18 -18 -18 -19 -19 -19 -19 -19 -20 -20 -20 -21 -21 -21 -21 -22 -22 -22 -23 -23 -24 -24 -23 -24 -25 -26 -28 -30 -32 -32 -33 -33 -33 -33 -33 -33 -33 -32 -32 -32
-17 -18 -18 -18 -19 -19 -19 -19 -19 -19 -19 -20 -20 -21 -21 -21 -21 -21 -22 -22 -22 -23 -24 -24 -24 -24 -24 -26 -28 -30 -31 -32 -33 -33 -33 -33 -33 -33 -33 -32 -32 -32 -32
-18 -18 -18 -19 -19 -19 -19 -19 -19 -20 -20 -20 -21 -20 -21 -21 -21 -22 -22 -23 -23 -24 -24 -24 -24 -25 -25 -28 -29 -31 -32 -33 -33 -33 -33 -33 -33 -32 -32 -32 -33 -33 -33
-18 -18 -18 -19 -19 -19 -20 -19 -20 -20 -20 -20 -20 -21 -22 -22 -22 -22 -23 -23 -24 -24 -24 -25 -25 -26 -27 -29 -31 -32 -33 -33 -33 -33 -33 -33 -33 -32 -32 -33 -33 -33 -33
-18 -18 -19 -19 -19 -19 -20 -20 -20 -20 -20 -20 -21 -21 -22 -22 -22 -22 -24 -24 -24 -24 -25 -26 -27 -28 -29 -30 -32 -33 -33 -33 -33 -34 -33 -33 -33 -33 -32 -33 -33 -33 -33
-18 -19 -19 -19 -19 -19 -20 -20 -20 -20 -21 -21 -21 -21 -21 -22 -23 -24 -24 -24 -24 -24 -26 -27 -28 -28 -29 -31 -32 -33 -33 -34 -34 -34 -33 -33 -33 -33 -33 -33 -33 -33 -33
-19 -19 -19 -19 -19 -20 -20 -21 -21 -20 -21 -21 -21 -21 -22 -23 -25 -24 -25 -25 -26 -27 -27 -28 -28 -30 -31 -32 -33 -33 -34 -34 -34 -34 -34 -33 -33 -33 -33 -33 -34 -34 -34
-19 -19 -19 -20 -20 -20 -21 -21 -21 -21 -21 -21 -21 -22 -24 -25 -24 -25 -25 -27 -28 -28 -28 -29 -30 -31 -32 -33 -33 -34 -34 -34 -34 -34 -34 -34 -34 -34 -34 -34 -34 -34 -34
-19 -19 -20 -20 -20 -21 -21 -21 -21 -21 -22 -22 -23 -23 -24 -25 -25 -26 -27 -28 -29 -29 -30 -30 -31 -32 -33 -33 -34 -34 -34 -34 -34 -34 -34 -34 -34 -34 -34 -34 -34 -34 -34
-19 -20 -20 -21 -21 -21 -22 -22 -22 -22 -22 -22 -24 -24 -25 -25 -27 -28 -29 -29 -30 -30 -31 -31 -31 -33 -33 -34 -34 -35 -35 -34 -34 -34 -35 -35 -35 -35 -35 -35 -34 -34 -34
Height
5794 5794 5795 5794 5793 5792 5791 5789 5789 5788 5786 5785 5782 5779 5777 5773 5769 5764 5758 5755 5752 5750 5746 5742 5738 5733 5727 5721 5716 5712 5708 5703 5698 5694 5692 5689 5683 5678 5672 5667 5664 5659 5653
5793 5792 5792 5791 5790 5789 5787 5787 5785 5784 5782 5780 5777 5773 5769 5765 5761 5758 5756 5752 5747 5742 5736 5732 5726 5720 5715 5710 5705 5700 5696 5691 5685 5678 5674 5671 5669 5661 5653 5647 5640 5631 5627
5791 5790 5789 5788 5788 5786 5784 5783 5781 5779 5777 5775 5772 5768 5764 5760 5757 5754 5749 5744 5738 5732 5727 5722 5717 5711 5705 5699 5692 5686 5682 5675 5670 5663 5657 5650 5645 5639 5632 5624 5616 5606 5599
5788 5788 5786 5786 5784 5782 5780 5778 5776 5774 5772 5770 5766 5763 5759 5756 5752 5745 5740 5734 5730 5725 5719 5713 5706 5699 5692 5685 5679 5672 5666 5660 5653 5645 5636 5627 5619 5612 5609 5598 5587 5576 5568
5785 5783 5783 5782 5780 5777 5776 5774 5772 5771 5768 5765 5762 5758 5754 5749 5743 5737 5732 5726 5721 5714 5708 5701 5694 5688 5680 5671 5665 5659 5650 5642 5634 5624 5614 5604 5594 5585 5573 5570 5559 5545 5535
5781 5779 5778 5777 5775 5774 5773 5771 5769 5766 5763 5760 5756 5751 5746 5740 5734 5729 5723 5717 5710 5703 5696 5688 5680 5672 5665 5658 5650 5642 5633 5625 5615 5604 5591 5580 5568 5556 5544 5531 5525 5514 5510
5776 5776 5775 5773 5772 5771 5769 5767 5764 5761 5757 5753 5748 5743 5737 5730 5725 5719 5711 5706 5700 5692 5684 5676 5668 5659 5651 5643 5635 5625 5616 5605 5595 5582 5569 5554 5539 5525 5514 5502 5496 5489 5488
5773 5772 5771 5769 5768 5766 5764 5761 5758 5754 5750 5745 5739 5733 5728 5722 5716 5711 5704 5696 5688 5680 5672 5665 5656 5647 5639 5629 5620 5609 5598 5586 5573 5559 5547 5530 5514 5500 5490 5481 5475 5474 5473
5770 5769 5767 5766 5764 5761 5758 5755 5751 5746 5741 5735 5731 5725 5719 5713 5706 5700 5693 5684 5676 5667 5659 5651 5643 5635 5626 5614 5602 5591 5577 5564 5550 5534 5519 5505 5493 5483 5476 5469 5463 5460 5460
5766 5765 5763 5761 5758 5755 5751 5747 5742 5737 5732 5727 5721 5714 5708 5702 5695 5688 5680 5672 5662 5654 5646 5638 5629 5620 5609 5600 5587 5574 5561 5545 5528 5510 5497 5487 5477 5469 5463 5459 5454 5450 5446
5762 5760 5757 5754 5751 5747 5743 5738 5734 5728 5722 5717 5710 5703 5696 5689 5683 5676 5668 5659 5650 5642 5633 5624 5615 5605 5594 5583 5570 5557 5542 5524 5507 5492 5480 5471 5463 5457 5453 5449 5444 5439 5435
5755 5753 5750 5747 5742 5738 5733 5729 5724 5718 5712 5705 5698 5692 5684 5678 5671 5662 5654 5645 5637 5628 5619 5610 5600 5591 5578 5565 5553 5537 5522 5505 5490 5477 5467 5459 5452 5448 5443 5439 5434 5429 5424
5749 5745 5742 5738 5732 5728 5723 5718 5713 5707 5700 5693 5686 5678 5672 5665 5657 5648 5639 5631 5623 5614 5605 5595 5584 5574 5563 5549 5533 5519 5502 5486 5473 5463 5454 5448 5443 5439 5434 5429 5424 5418 5413
5740 5736 5732 5728 5723 5717 5712 5706 5701 5694 5687 5681 5673 5666 5659 5652 5643 5635 5625 5617 5609 5599 5590 5579 5568 5556 5544 5530 5516 5499 5483 5470 5459 5451 5445 5439 5434 5430 5425 5419 5413 5407 5401
5732 5727 5722 5717 5712 5706 5700 5694 5688 5682 5675 5668 5661 5654 5647 5639 5630 5621 5612 5603 5595 5585 5575 5564 5551 5538 5524 5510 5496 5480 5467 5456 5448 5440 5434 5429 5425 5420 5415 5408 5402 5396 5390
5722 5716 5711 5705 5700 5694 5689 5683 5677 5670 5663 5656 5649 5642 5633 5625 5616 5607 5598 5589 5580 5570 5560 5549 5536 5523 5508 5490 5477 5465 5453 5444 5437 5431 5425 5420 5415 5411 5406 5400 5394 5386 5380
5710 5704 5699 5694 5688 5682 5678 5671 5665 5658 5651 5644 5636 5628 5620 5613 5604 5594 5584 5574 5564 5554 5543 5531 5520 5508 5495 5475 5463 5452 5442 5434 5428 5422 5417 5412 5406 5402 5396 5390 5384 5377 5370
5698 5693 5688 5682 5676 5671 5665 5659 5652 5646 5639 5631 5624 5616 5608 5599 5589 5579 5569 5559 5549 5538 5526 5515 5505 5490 5482 5462 5450 5441 5433 5426 5419 5414 5410 5405 5399 5393 5387 5382 5375 5368 5362
5686 5681 5675 5670 5664 5658 5652 5647 5640 5632 5625 5618 5610 5602 5593 5584 5574 5563 5553 5543 5533 5521 5510 5500 5486 5473 5465 5448 5438 5431 5425 5419 5412 5407 5402 5398 5391 5385 5380 5373 5367 5361 5355
5674 5669 5664 5658 5653 5647 5641 5634 5626 5620 5613 5604 5596 5588 5580 5570 5559 5548 5537 5527 5516 5506 5496 5484 5472 5459 5445 5438 5428 5422 5417 5411 5406 5400 5395 5391 5385 5378 5371 5366 5360 5354 5349
5663 5659 5653 5648 5642 5635 5628 5621 5614 5606 5597 5587 5579 5572 5563 5552 5541 5531 5521 5512 5502 5492 5482 5471 5458 5446 5435 5427 5420 5414 5409 5404 5399 5394 5389 5383 5377 5371 5364 5359 5354 5348 5344
5653 5648 5642 5636 5629 5622 5615 5607 5600 5593 5584 5576 5568 5558 5545 5535 5525 5515 5508 5498 5487 5478 5466 5456 5444 5434 5426 5418 5411 5407 5402 5397 5393 5388 5383 5377 5371 5365 5359 5353 5348 5343 5338
5640 5635 5628 5623 5616 5609 5602 5596 5589 5579 5569 5558 5549 5538 5528 5518 5508 5501 5491 5481 5471 5462 5451 5442 5433 5423 5415 5410 5405 5399 5395 5391 5387 5382 5377 5372 5366 5360 5354 5349 5344 5339 5334
5628 5623 5617 5610 5603 5596 5588 5581 5573 5562 5553 5542 5532 5523 5513 5504 5496 5486 5476 5466 5457 5448 5439 5431 5422 5412 5405 5400 5397 5393 5389 5385 5381 5377 5372 5367 5361 5355 5349 5344 5340 5335 5330
5616 5610 5603 5596 5589 5582 5574 5565 5556 5547 5537 5528 5517 5508 5500 5490 5481 5472 5462 5454 5444 5437 5428 5420 5412 5405 5398 5394 5389 5386 5383 5380 5376 5371 5367 5362 5357 5351 5345 5340 5335 5331 5326
5603 5596 5589 5582 5574 5567 5560 5551 5541 5531 5520 5512 5503 5494 5486 5476 5466 5459 5451 5443 5435 5426 5417 5409 5402 5396 5391 5387 5384 5380 5377 5373 5369 5366 5361 5357 5353 5348 5342 5336 5331 5327 5322
Wind_Speed
11 12 13 14 15 19 22 24 24 25 22 27 32 36 38 40 40 43 45 45 46 46 47 50 51 52 52 55 56 57 57 58 59 60 59 59 62 65 69 73 74 75 78
15 14 14 16 18 22 26 26 27 26 28 30 35 34 35 36 38 40 43 44 46 48 50 50 53 55 53 54 57 59 58 58 58 61 63 64 66 70 74 77 81 84 86
14 16 18 19 19 22 26 25 26 27 30 31 29 29 31 35 38 40 43 45 47 50 51 53 54 55 57 59 59 59 57 60 62 67 70 74 76 79 80 83 85 88 91
18 20 22 21 23 26 27 26 25 24 22 25 27 30 33 38 40 44 47 50 50 51 53 57 57 59 60 59 58 60 61 66 70 73 77 81 82 84 86 90 93 96 100
22 23 23 23 26 27 20 18 19 20 23 26 29 32 36 40 43 46 50 53 55 56 58 60 61 62 63 61 62 63 68 72 76 81 83 85 87 91 95 97 100 103 99
25 26 25 26 23 17 17 18 20 22 25 28 32 35 39 43 46 49 50 53 58 60 60 61 65 66 64 64 67 71 75 78 82 83 86 91 94 98 101 101 94 84 71
26 26 24 19 16 15 19 21 23 26 30 33 36 39 43 46 50 45 55 58 64 62 61 65 66 66 67 70 72 76 80 82 84 86 93 97 99 97 91 81 73 63 49
20 18 17 16 17 20 23 25 28 32 35 38 41 45 47 49 49 50 58 62 64 63 63 65 66 66 69 73 76 80 84 87 90 94 99 95 89 81 74 66 58 48 42
15 16 18 20 23 27 29 32 35 37 40 43 46 48 50 52 53 55 59 62 63 63 64 66 67 68 71 75 80 84 85 92 97 104 93 83 76 70 61 54 49 47 44
20 21 23 26 30 33 35 38 41 43 46 48 50 52 54 55 56 59 61 63 63 63 65 66 68 71 76 79 83 84 89 97 103 90 80 72 65 57 50 47 46 47 47
23 26 29 32 36 38 41 44 46 48 51 53 57 58 58 58 59 60 63 64 63 64 65 67 70 74 78 82 84 90 92 103 90 77 71 62 53 47 44 44 45 45 47
29 31 33 37 41 43 45 48 50 52 53 56 58 58 59 59 60 63 63 64 64 64 66 68 72 76 80 87 89 95 99 93 76 69 60 51 45 42 42 44 43 44 47
34 37 39 42 45 47 49 51 52 54 56 58 59 59 58 58 61 64 64 64 64 66 68 70 74 78 82 89 95 102 95 77 68 59 49 43 40 40 42 42 44 46 48
40 43 45 46 48 51 53 54 54 56 58 59 59 58 58 60 62 64 64 65 66 70 72 74 75 78 86 93 98 102 83 69 60 49 43 40 39 39 40 43 45 46 45
45 47 49 51 52 54 55 56 56 58 58 58 57 57 58 59 62 64 64 66 69 73 75 78 76 84 91 93 98 89 75 63 51 44 41 40 39 39 41 44 44 46 45
50 51 52 53 54 55 55 55 56 57 55 56 56 58 58 60 64 65 66 68 72 75 79 78 82 89 96 93 87 79 66 53 45 41 39 39 39 39 40 40 42 43 43
53 53 53 53 53 53 54 55 54 53 54 56 58 59 61 62 66 68 69 71 75 76 78 79 84 92 96 84 80 69 57 47 42 40 37 36 38 39 41 41 42 41 41
52 51 51 51 52 52 52 51 52 54 57 58 59 57 57 64 70 74 75 76 78 76 77 82 87 91 92 79 68 59 48 43 39 36 35 36 38 39 40 39 40 39 36
51 50 50 50 49 48 50 53 56 58 58 56 59 60 63 70 75 76 78 80 75 74 79 86 87 86 84 68 59 49 42 39 37 36 36 35 39 39 39 39 36 35 32
49 48 47 46 46 50 53 56 55 56 61 59 65 69 70 74 83 80 79 78 80 78 82 78 82 75 70 60 51 44 41 39 36 36 35 34 35 37 38 36 33 30 29
45 43 44 47 51 54 55 53 56 59 61 68 72 76 81 83 85 81 81 77 79 80 81 78 68 64 60 55 44 41 39 37 34 33 34 34 34 35 36 33 30 27 26
43 45 48 51 53 53 53 57 60 63 65 63 78 82 87 80 80 78 75 79 80 83 77 69 64 60 52 47 41 39 37 34 31 32 32 32 33 33 32 30 27 26 25
48 50 52 51 52 54 56 54 65 71 66 72 77 82 81 78 67 71 72 75 73 71 70 65 59 50 46 41 37 36 33 30 30 30 30 30 31 30 28 26 26 25 24
50 50 52 54 57 58 60 63 68 69 81 80 79 82 72 64 72 72 74 73 68 67 62 57 51 46 41 37 35 32 29 28 29 29 29 29 29 28 26 25 24 24 22
51 53 56 58 60 63 66 64 68 69 69 79 81 78 81 74 75 74 68 69 61 57 55 51 46 41 36 33 33 30 28 29 29 28 28 28 28 28 26 24 23 22 22
56 57 59 64 65 64 62 66 72 75 79 80 82 79 79 78 71 69 62 61 53 52 50 49 43 37 34 31 29 29 29 30 29 29 28 27 26 27 26 25 23 23 21
Wind_Direction
267 258 257 266 279 285 287 289 289 288 286 289 300 305 307 311 311 315 318 316 315 311 309 308 306 305 305 304 303 300 298 297 296 296 294 294 294 294 292 290 287 286 284
268 274 274 279 284 282 285 286 286 293 290 295 305 305 309 314 318 316 311 310 311 311 312 310 308 307 303 300 297 295 296 297 298 298 298 297 296 297 297 295 293 291 288
271 274 276 279 280 280 281 289 288 287 294 298 301 309 313 315 313 310 311 313 314 313 311 310 308 304 300 298 299 299 301 301 302 301 301 300 300 298 298 296 294 292 291
270 270 270 273 272 279 283 286 290 294 301 301 306 310 311 309 308 311 311 310 309 307 307 308 308 308 308 306 304 302 302 303 304 304 305 303 301 300 298 297 295 295 295
266 268 266 270 274 280 289 291 292 294 298 301 305 308 308 308 310 308 307 307 307 306 305 306 307 308 307 304 303 304 305 306 307 307 305 304 303 303 302 299 298 297 296
262 264 266 271 275 282 288 293 298 300 301 303 305 307 305 305 307 305 305 308 310 308 306 309 311 309 307 306 306 307 308 308 308 307 307 308 307 306 305 301 299 297 295
261 265 267 269 278 287 293 297 299 301 301 299 300 301 303 305 307 299 303 303 306 307 308 310 310 309 309 310 310 309 310 309 308 308 311 311 309 305 303 302 301 300 298
263 263 270 278 288 294 296 297 298 297 297 299 301 302 304 303 305 297 299 304 307 308 308 309 309 309 310 311 312 312 311 310 311 313 314 310 306 306 305 304 302 298 296
269 278 282 282 290 296 297 298 299 300 299 299 300 301 302 304 305 304 307 308 307 308 309 309 309 311 314 316 317 317 315 317 317 317 312 309 307 305 303 301 296 293 293
283 285 287 290 293 295 297 298 300 301 299 299 298 299 302 305 307 310 309 309 309 309 309 309 312 315 317 318 320 319 319 320 320 313 310 308 305 302 299 297 295 293 293
288 289 290 291 293 296 296 297 299 299 299 299 299 301 302 307 308 308 310 310 309 308 309 312 315 320 321 321 321 321 321 323 316 310 308 305 302 300 297 297 296 295 294
290 291 293 293 294 295 297 299 299 299 300 300 302 304 305 305 308 309 310 309 308 309 312 315 319 321 324 323 323 325 325 321 313 309 306 303 300 298 296 298 297 296 296
292 294 295 295 296 297 297 299 299 300 301 302 304 305 304 306 308 309 309 309 309 310 313 315 318 323 325 327 327 328 323 317 312 309 304 301 299 297 297 299 298 298 300
295 297 297 297 297 298 299 300 300 302 304 304 305 305 307 308 309 310 310 309 309 310 312 313 319 324 327 331 328 328 319 317 312 307 302 300 299 299 299 299 300 301 303
296 296 297 297 298 299 300 301 303 303 304 305 305 306 307 308 309 310 310 309 309 310 312 312 319 325 328 330 331 326 320 315 311 306 303 300 300 301 302 302 303 304 306
295 296 297 298 299 300 302 302 302 303 304 304 304 305 308 310 311 310 309 310 310 311 311 312 316 325 332 330 329 323 318 314 310 306 303 302 302 302 303 303 305 306 308
297 298 299 300 301 301 301 302 303 304 304 304 305 308 308 308 310 310 310 310 310 309 309 311 318 324 332 329 327 321 316 313 309 306 304 303 302 305 306 308 309 309 310
297 299 300 299 299 301 302 303 303 304 303 305 307 307 304 307 308 309 308 308 307 306 308 313 324 332 332 327 324 319 315 313 309 307 306 305 305 308 307 310 311 312 310
297 298 298 300 300 301 303 304 304 305 306 307 309 308 306 302 301 304 306 306 303 304 311 315 328 332 331 325 322 316 314 313 311 309 307 308 307 309 311 315 314 313 311
298 298 299 299 302 303 305 304 305 309 298 304 307 308 303 298 296 295 301 301 300 305 311 328 330 328 326 324 318 314 312 312 310 308 307 308 308 312 314 315 315 314 313
297 299 299 301 302 303 304 304 306 307 311 305 302 304 304 300 294 293 297 299 303 313 323 330 328 325 323 321 315 312 311 310 309 308 308 310 314 316 315 316 318 317 314
300 300 300 301 303 304 306 306 310 309 308 304 286 294 293 292 290 292 299 305 312 317 328 330 325 322 321 317 314 311 310 308 308 308 310 314 317 318 316 317 320 319 320
301 302 304 305 306 307 307 305 302 303 300 292 287 282 289 287 292 300 306 315 324 327 328 325 320 319 318 315 311 310 308 305 308 311 313 316 319 319 319 319 317 316 322
303 305 306 306 306 306 307 305 307 306 295 283 280 283 285 294 303 311 320 326 328 327 323 320 318 319 315 313 312 309 303 306 312 314 316 319 322 323 322 321 317 315 317
303 303 303 304 305 305 304 305 295 294 291 289 283 287 288 298 309 319 327 327 325 323 319 317 318 315 311 310 310 307 303 306 310 313 316 320 326 328 326 324 321 318 319
304 305 305 305 304 304 302 296 288 286 286 289 289 291 300 313 322 324 324 323 320 319 319 317 315 313 309 306 305 303 305 307 311 313 315 319 325 331 334 333 329 325 320